FENGYUN 1C DEB

Satellite information

Favourite Embed

Satellite Type and Status

DEBRISIN ORBIT

Key statistics

Satellite FENGYUN 1C DEB at a glance.

Uptime

9715

Days in orbit

Revolutions

≈ 14.4

Per day

Orbit

SSO

Sun Synchronous Orbit

Inclination

98.8

Latest

Satellite identification and parameters

Extended collection of information and parameters for FENGYUN 1C DEB.

Object identification

Identified? True

Debris? True

Object name: FENGYUN 1C DEB

International designator: 1999-025PU

Object number (NORAD): 30067

Object ID (CCSDS): 30067

Country: PEOPLES REPUBLIC OF CHINA (PRC)

Current information (Y/N): Y

RCS size: MEDIUM

Orbital parameters

Period: 99.744 minutes

Inclination: 98.7656 deg

SMA: 7124.468 km

Apoapsis: 854.504 km

Periapsis: 638.162 km

RAAN: 233.777 deg

Eccentricy: 0.01518306

Argument of periapsis: 15.3446 deg

Mean anomaly: 6.4172 deg

Mean motion: 14.43690497 rev/day

Mean motion (dot): 0.00002189 rev/day2

B* drag term: 0.00057373822 1/REarth

Two-line elements (TLE)

Creation date: Dec. 14, 2025, 3:07 a.m.

Reference frame: TEME

Reference center: EARTH

Epoch: Dec. 13, 2025, 3:59 p.m. UTC

TLE line 0: 0 FENGYUN 1C DEB

TLE line 1: 1 30067U 99025PU 25347.66627123 .00002189 00000-0 57374-3 0 9994

TLE line 2: 2 30067 98.7656 233.7770 0151831 15.3446 6.4172 14.43690497992120

Live tracking on map

Real-time ground track for satellite FENGYUN 1C DEB.

In-orbit conjunctions

A list of the most updated potential collisions computed for object FENGYUN 1C DEB.

Target Orbit TCA Probability of collision Miss distance Type
PARASOL SSO 2025-09-10 12:22:05 0.0001781714 642.0 (m) PAYLOAD
FENGYUN 1C DEB SSO 2024-10-01 01:20:12 0.0001410011 296.0 (m) DEBRIS

Associated space launch

Chinese polar orbiting meteorological satellite

FENGYUN 1C DEB was lifted into orbit during the mission ‘Long March 4B | Feng Yun 1C’, on board a Long March 4B space rocket.

The launch took place on May 10, 1999, 1:33 a.m. from Launch Complex 7.

For more information about the launch, click the button.

Launch to space Long March 4B | Feng Yun 1C
Long March 4B | Feng Yun 1C

Agency: N/A

Status: Launch Successful

Launch date: May 10, 1999, 1:33 a.m. UTC

Rocket: Long March 4B

Launch pad: Launch Complex 7

Location: Taiyuan Satellite Launch Center, People's Republic of China

...

Latest news about this satellite

There are no fresh news available about this satellite. Check back as we update our databases every day.


Newsletter sign-up

Weekly statistics, charts and insights to help you stay on top of the space industry.